EHI
4 5 4 4 4 4 6 6 4 2 2 2 3 4 5 6 4 2 1 0 0 0 0 0 0 0 0 0 0 0 0 0 0 0 0 0 0 0
6 7 7 5 4 4 5 5 4 3 2 2 3 3 2 2 2 1 0 0 0 0 0 0 0 0 0 0 0 0 0 0 0 0 0 0 0 0
7 8 8 6 5 4 4 4 3 4 4 3 2 1 1 1 1 1 1 1 0 0 0 0 0 0 0 0 0 0 0 0 0 0 0 0 0 0
7 8 7 6 5 4 4 4 3 4 5 4 2 2 2 2 2 2 1 0 0 0 0 0 0 0 0 0 0 0 0 0 0 0 0 0 0 0
8 9 9 7 6 5 5 4 4 4 4 4 3 4 4 3 3 2 2 2 1 0 0 0 0 0 0 0 0 0 0 0 0 0 0 0 0 0
9 9 8 6 4 5 5 4 4 3 3 3 3 4 5 5 5 4 5 5 4 1 0 0 0 0 0 0 0 0 0 0 0 0 0 0 0 0
10 8 6 4 3 3 3 3 3 3 3 3 3 4 6 7 6 6 6 6 3 1 1 0 0 0 0 0 0 0 0 0 0 0 0 0 0 0
10 7 4 4 3 1 1 1 2 3 3 3 3 4 5 6 6 6 6 4 2 0 0 0 0 0 0 0 0 0 0 0 0 0 0 0 0 0
9 6 5 4 3 2 1 0 0 1 1 2 3 3 4 4 5 5 4 3 1 0 0 0 0 0 0 0 0 0 0 0 0 0 0 0 0 0
9 7 6 5 3 3 2 1 1 0 0 1 2 3 3 3 4 4 3 3 2 1 0 0 0 0 0 0 0 0 0 0 0 0 0 0 0 0
11 8 6 4 3 3 3 3 2 1 0 0 1 2 2 1 2 4 4 3 3 2 1 0 0 0 0 0 0 0 0 0 0 0 0 0 0 0
10 7 4 3 2 2 3 3 3 2 1 1 2 2 2 1 2 3 3 3 3 3 2 1 0 0 0 0 0 0 0 0 0 0 0 0 0 0
7 5 3 1 1 1 2 3 3 2 2 2 3 3 3 3 3 3 3 3 3 3 2 1 0 0 0 0 0 0 0 0 0 0 0 0 0 0
5 3 1 0 0 0 1 2 1 1 3 4 4 4 3 3 3 4 3 3 3 2 1 0 0 0 0 0 0 0 0 0 0 0 0 0 0 0
3 2 0 0 0 0 0 0 0 1 3 4 4 4 4 3 4 4 3 2 1 1 0 0 0 0 0 0 0 0 0 0 0 0 0 0 0 0
2 1 0 0 0 0 0 0 0 1 3 4 4 4 3 3 3 3 1 1 0 0 0 0 0 0 0 0 0 0 0 0 0 0 0 0 0 0
2 2 1 0 0 0 0 0 1 2 3 3 3 3 3 3 3 1 0 0 0 0 0 0 0 0 0 0 0 0 0 0 0 0 0 0 0 0
2 2 2 1 0 0 0 1 2 3 3 3 3 3 3 3 2 1 0 0 0 0 0 0 0 0 0 0 0 0 0 0 0 0 0 0 0 0
2 3 3 1 0 0 1 1 3 3 3 3 3 3 3 3 2 1 0 0 0 0 0 0 0 0 0 0 0 0 0 0 0 0 0 0 0 0
4 4 4 3 2 1 2 3 3 3 3 3 3 3 3 3 2 1 0 0 0 0 0 0 0 0 0 0 0 0 0 0 0 0 0 0 0 0
6 6 6 5 5 4 3 4 3 3 3 3 3 3 3 3 3 1 0 0 0 0 0 0 0 0 0 0 0 0 0 0 0 0 0 0 0 0
6 6 6 6 6 5 5 5 4 3 3 3 3 3 3 3 3 2 0 0 0 0 0 0 0 0 0 0 0 0 0 0 0 0 0 0 0 0
6 6 6 6 6 6 6 5 4 3 3 3 3 3 3 3 3 1 0 0 0 0 0 0 0 0 0 0 0 0 0 0 0 0 0 0 0 0
Wind_Speed
2 3 3 2 2 2 2 3 4 3 2 1 0 1 1 1 2 0 1 5 5 4 3 3 4 4 4 4 3 3 3 3 3 3 3 2 2 2
2 2 3 2 1 2 2 3 3 4 2 1 0 2 2 1 3 1 2 6 6 5 5 5 5 4 4 4 4 3 3 3 3 3 3 2 2 1
1 1 2 2 2 2 2 2 2 2 2 1 1 1 1 1 2 1 1 1 4 7 6 6 5 5 5 5 4 4 4 4 4 4 3 2 2 2
1 1 2 1 1 2 1 1 1 1 2 1 0 0 0 1 1 1 1 2 3 8 7 6 6 5 5 5 4 4 4 4 4 4 4 4 3 3
1 1 1 1 1 1 1 1 0 1 1 1 1 0 0 1 1 1 2 1 2 6 7 7 6 6 5 5 5 4 4 4 4 4 4 4 4 4
1 1 2 1 1 1 0 0 0 0 1 1 1 1 1 1 1 1 1 1 1 2 3 4 6 7 6 6 5 5 4 4 4 4 4 3 3 3
1 1 3 3 4 3 2 1 0 1 1 1 1 1 1 1 1 1 1 1 2 1 1 2 3 3 5 6 5 5 5 4 4 4 3 3 2 2
1 1 2 2 3 3 3 3 3 1 1 1 1 1 1 1 0 1 1 1 1 1 1 1 2 2 2 3 5 6 5 5 4 4 3 3 2 2
1 1 0 2 1 2 3 3 2 2 1 2 1 1 1 1 1 1 1 1 0 1 1 1 1 1 2 4 7 6 5 4 3 3 3 3 3 3
1 1 1 1 2 0 1 2 2 2 0 1 0 1 0 1 2 2 1 2 2 2 1 1 1 1 1 3 7 6 5 4 4 3 3 3 4 4
2 2 1 2 2 2 1 2 2 2 3 3 2 2 2 2 2 2 2 2 1 2 2 1 1 1 1 3 5 6 6 5 5 4 4 4 4 5
3 3 3 2 2 1 1 1 1 1 1 3 4 4 3 3 2 2 2 2 1 1 2 1 1 1 2 2 3 4 4 6 6 6 6 6 5 5
3 3 3 4 3 2 3 1 1 2 2 3 3 3 3 3 3 2 2 2 2 1 1 2 2 2 2 1 2 2 3 3 4 5 6 7 7 6
3 2 3 5 4 3 2 1 2 5 3 3 2 2 2 2 1 1 0 1 2 1 0 1 2 2 2 2 1 2 2 2 2 3 3 6 6 6
2 2 3 5 6 5 5 4 5 4 3 3 2 2 1 1 1 2 2 2 2 2 2 2 3 2 3 3 2 1 2 2 2 2 2 2 3 4
5 5 7 7 6 4 5 6 5 3 3 3 2 2 2 2 3 2 2 2 2 2 3 3 2 3 3 3 2 2 2 2 2 2 2 3 3 3
3 4 5 5 6 5 4 4 4 4 4 3 3 3 3 3 2 2 2 3 3 2 2 3 3 3 3 3 3 2 2 2 2 2 3 3 3 3
5 6 5 5 5 5 4 4 4 4 4 3 3 3 3 3 3 2 3 3 3 2 2 2 3 3 4 3 2 3 3 3 2 2 3 3 3 2
7 7 6 5 5 5 5 5 5 4 4 4 4 3 3 3 3 3 3 3 3 3 3 3 3 4 5 3 3 3 3 2 3 2 3 3 3 2
8 7 6 6 5 5 5 5 4 4 5 4 4 4 4 4 4 4 4 4 4 4 3 3 3 4 5 4 1 2 4 4 3 3 3 3 2 1
7 7 6 5 5 4 4 4 4 4 4 4 4 4 4 5 4 4 4 4 5 4 4 3 2 4 4 4 4 3 3 4 3 3 4 4 4 4
5 5 5 4 4 4 4 5 5 5 5 5 4 4 4 4 5 5 4 4 4 4 5 3 3 4 4 5 5 4 3 3 5 5 4 4 4 4
5 4 4 4 4 4 4 5 6 5 5 5 5 4 4 4 4 4 5 4 4 4 4 4 3 4 4 5 5 4 4 4 3 4 5 6 6 5
Wind_Direction
262 249 264 264 270 277 273 264 270 274 261 177 202 70 20 53 82 143 116 104 110 107 109 112 110 111 112 113 119 123 119 134 149 157 165 176 187 198
279 293 281 276 267 262 259 258 264 275 280 351 23 32 17 20 92 84 108 122 114 113 109 109 108 107 105 105 106 111 112 116 111 117 138 137 138 151
276 270 274 293 280 267 255 253 258 263 255 284 24 69 57 28 60 66 103 142 113 111 113 115 113 109 104 101 99 102 103 102 100 94 92 105 123 139
309 311 305 305 291 287 270 253 248 243 234 226 254 133 86 76 70 78 80 86 99 108 115 117 118 117 113 111 104 99 99 103 99 93 85 80 81 91
338 325 336 342 342 343 308 290 235 180 196 195 206 103 73 93 106 104 96 95 122 126 131 129 128 126 123 119 112 105 102 102 104 103 94 83 77 78
45 26 23 19 13 343 287 291 290 217 165 190 183 164 137 113 149 146 144 137 115 110 116 131 136 146 143 140 134 127 120 115 110 106 103 97 87 82
108 74 65 55 39 13 357 9 245 227 195 180 186 177 143 147 183 179 132 135 126 108 139 142 147 150 152 155 152 142 134 132 129 127 125 126 125 119
131 116 132 120 98 92 61 42 22 300 268 253 218 202 177 176 196 198 164 164 138 135 210 147 138 128 125 114 122 138 143 145 146 143 140 144 151 155
151 174 140 93 160 115 136 157 115 62 346 288 272 237 211 197 239 221 195 242 157 131 207 163 128 119 119 103 121 134 137 144 155 162 164 170 178 185
164 162 143 112 66 10 140 124 116 97 23 268 309 266 289 243 239 236 216 202 184 149 168 235 158 149 136 131 136 147 153 163 173 181 185 189 193 200
176 158 160 135 71 326 197 153 155 153 135 101 65 80 56 15 306 232 201 216 200 152 160 255 184 163 165 155 146 162 174 180 187 195 202 207 212 213
171 161 123 111 115 294 221 182 179 172 161 155 160 172 171 163 225 257 258 252 234 178 135 237 211 199 185 154 156 171 181 183 196 200 202 206 215 235
195 182 138 137 158 226 257 223 204 259 218 201 186 178 173 174 190 208 274 288 278 268 137 223 249 247 250 188 191 193 197 194 197 197 201 205 213 244
232 205 141 157 177 210 231 177 237 254 228 213 206 201 198 191 172 171 247 300 316 319 354 271 271 274 271 245 223 207 222 226 219 214 202 187 209 225
230 107 155 183 199 202 198 207 223 233 230 220 213 212 210 186 186 190 187 210 218 212 181 243 265 266 274 272 254 233 245 238 229 228 221 213 218 218
207 176 189 207 225 223 195 204 219 232 248 238 225 212 207 198 210 215 220 214 217 187 174 201 251 262 264 277 273 250 246 239 237 243 243 243 233 235
212 212 211 205 210 213 210 210 219 214 219 226 222 218 218 211 213 218 234 241 241 233 198 194 209 235 255 278 273 268 264 262 251 245 249 250 241 233
218 223 223 224 224 220 216 210 209 216 222 223 223 229 231 224 220 219 221 236 241 240 238 220 212 221 221 202 274 270 262 266 269 225 243 254 253 236
219 227 227 228 230 228 223 221 213 207 215 221 223 228 234 233 231 227 228 234 239 243 241 232 233 242 248 237 193 237 274 279 277 259 256 261 258 251
226 231 231 230 229 228 227 223 217 209 208 215 220 226 232 234 231 228 226 237 243 243 238 230 232 249 267 280 259 201 216 259 273 273 273 270 267 198
224 228 231 230 227 222 222 225 222 220 220 225 223 225 229 234 235 232 223 216 241 245 246 238 230 240 259 268 255 222 190 201 249 277 281 272 264 245
227 228 228 228 221 217 214 217 217 213 211 220 225 227 230 233 232 232 234 230 230 243 250 242 204 220 242 252 257 248 229 205 198 206 247 274 284 276
229 226 221 219 218 214 214 216 220 218 216 223 225 224 227 230 236 235 233 237 239 243 248 248 232 227 237 245 254 259 251 240 235 221 212 202 212 223